Regional Weather Roundup
Issued by NWS New Orleans/Baton Rouge, LA

Home | Current Version | Previous Version | Text Only | Print | Product List | Glossary On
Versions: 1 2 3 4 5 6 7 8 9 10 11 12 13 14 15 16 17 18 19 20 21 22 23 24 25 26 27 28 29 30 31 32 33 34 35 36 37 38 39 40 41 42 43 44 45 46 47 48 49 50
000
ASUS44 KLIX 210810
RWRLIX
NEW ORLEANS REGIONAL WEATHER ROUNDUP
NATIONAL WEATHER SERVICE NEW ORLEANS LA
300 AM CDT SUN SEP 21 2014

NOTE: "FAIR" INDICATES FEW OR NO CLOUDS BELOW 12,000 FEET WITH NO
      SIGNIFICANT WEATHER AND/OR OBSTRUCTIONS TO VISIBILITY.
      SKY/WX - SKY CONDITION AND SIGNIFICANT WEATHER.
      TMP - AIR TEMPERATURE.     DP    - DEWPOINT TEMPERATURE.
      RH  - RELATIVE HUMIDITY.   PRES  - PRESSURE.
      HI  - HEAT INDEX.          WCI   - WIND CHILL INDEX.

*  THESE STATIONS ARE NOT NWS OR FAA STATIONS AND ARE NOT UNDER
   NWS QUALITY CONTROL.

LAZ038-040-048-061>063-065>067-069-210900-
SOUTHEAST LOUISIANA

CITY           SKY/WX    TMP DP  RH WIND       PRES   REMARKS
N.O. AUDUBON     N/A     76  70  81 MISG        N/A
N.O. INTL ARPT CLEAR     77  68  73 E3        29.96F
N.O. LAKEFRONT CLEAR     78  71  79 NE14      29.97S
N.O. DOWNTOWN*   N/A     79  66  65 NE3       29.97S
SLIDELL        CLEAR     69  66  90 NE3       29.97F
BATON ROUGE    CLEAR     71  69  93 NE5       29.99R
BOOTHVILLE     CLEAR     80  72  76 E6        29.94S
BELLE CHASSE   CLEAR     74  68  81 NE5       29.96S
BOGALUSA*        N/A     66  63  90 N3        30.00S
GALLIANO*      NOT AVBL
NEW ROADS*       N/A     69  69  99 CALM      29.99S FOG
GONZALES*        N/A     70  70 100 CALM      29.97S FOG
HAMMOND*       CLEAR     72  66  83 CALM      30.00S
HOUMA*         CLEAR     72  67  87 CALM      29.96S
PORT FOURCHON* SUNNY     79  72  78 NE8       29.97S

$$

MSZ070-080>082-210900-
SOUTHERN MISSISSIPPI

CITY           SKY/WX    TMP DP  RH WIND       PRES   REMARKS
MCCOMB         CLEAR     69  66  90 CALM      30.01S
GULFPORT       CLEAR     71  66  84 N6        29.98S
BILOXI         MOCLDY    72  67  85 NE8       29.98S
PASCAGOULA     MOCLDY    70  67  90 N7        29.98S

$$

COASTAL OBSERVATIONS
LAKE AND NEARSHORE STATIONS

STATION/POSITION TIME  TEMP    WIND        PRES    WAVE
                       AIR SEA DIR/SP/G            HT/PER
                 (UTC) (F)     (DEG/KT/KT) (MB)    (FT/S)
PASCAGOULA       0800   72      20/  6/  8 1014.6
WAVELAND YACHT   0800   74      30/ 12/ 13 1014.5
GRAND ISLE       0800   80 82   60/  6/ 11 1014.5
SOUTHWEST PASS   0800   81 89   80/ 13/ 17 1013.6
NEW CANAL        0800   79 81   60/ 12/ 13 1014.9
SHELL BEACH      0800   80 78   40/ 13/ 15 1014.5

OFFSHORE STATIONS

STATION/POSITION TIME  TEMP    WIND        PRES    WAVE
                       AIR SEA DIR/SP/G            HT/PER
                 (UTC) (F)     (DEG/KT/KT) (MB)    (FT/S)
64 S DAUPHIN ISL 0738   81 84  100/ 14/ 16 1013.8    4/ 6

$$



USA.gov is the U.S. government's official web portal to all federal, state and local government web resources and services.